User: anonymous   Login
Location: Borea
(45.6167°N, 23.0167°E)
Time: 13:21:29
(UTC+00:00)
Language:

Cosmos 1844 - Orbit

View from above orbital plane
View from above orbital plane
View from above satellite
View from above satellite

Ground track
Ground track

The orbit data is extracted from the following two-line orbital elements,

1 17973U 87041A   24260.94878774 -.00000040  00000-0  45259-5 0  9990
2 17973  70.8964  90.3748 0028843 113.0710 247.3457 14.14364056927602
Epoch (UTC): 16 September 2024 22:46:15
Eccentricity: 0.0028843
inclination: 70.8964°
perigee height: 823 km
apogee height: 865 km
right ascension of ascending node: 90.3748°
argument of perigee: 113.0710°
revolutions per day: 14.14364056
mean anomaly at epoch: 247.3457°
orbit number at epoch: 92760

The dashed part of the orbit path shows where the satellite is in the earth's shadow,  

DLR